Location: Unspecified
(0.0000°N, 0.0000°E)
Time: 11:06:10
(UTC+00:00)

Vanguard 3 - Pass Details

Date: 01 October 2023
Orbit: 507 x 3241 km, 33.3° (Epoch: 06 December)

Event Time Altitude Azimuth Distance (km) Brightness Sun altitude
Rises 09:11:43 0° 211° (SSW) 5,339 11.2 50.4°
Reaches altitude 10° 09:17:05 10° 192° (SSW) 4,866 11.2 51.7°
Maximum altitude 09:25:40 17° 156° (SSE) 4,945 11.6 53.9°
Drops below altitude 10° 09:36:01 10° 121° (ESE) 6,034 12.2 56.4°
Sets 09:44:04 0° 104° (ESE) 7,201 12.5 58.4°
